KG5VSR Weather Reports


time (UTC)temp
F
wind
direction
speed
knots
gust
knots
rain 1hr
in
rain 24hr
in
rain mn
in
humidity
%
barometer
mb
20260507192507 75 330 4.3 5.2 0.00 0.00 0.00 53 1017.5
20260507185508 73 69 4.3 5.2 0.00 0.00 0.00 55 1018.0
20260507182507 73 335 2.6 2.6 0.00 0.00 0.00 54 1017.9
20260507175503 71 33 1.7 1.7 0.00 0.00 0.00 56 1018.4
20260507172503 70 75 0.9 4.3 0.00 0.00 0.00 58 1019.0
20260507165459 69 69 2.6 4.3 0.00 0.00 0.00 60 1019.9
20260507162457 66 349 0.9 0.9 0.00 0.00 0.00 67 1020.0
20260507155453 65 46 0.0 0.0 0.00 0.00 0.00 67 1020.0
20260507152451 65 328 0.9 1.7 0.00 0.00 0.00 67 1020.5
20260507145447 64 1 0.9 1.7 0.00 0.00 0.00 72 1020.6
20260507142445 63 1 1.7 1.7 0.00 0.00 0.00 73 1020.9
20260507135444 60 281 0.0 0.0 0.00 0.00 0.00 82 1021.2
20260507132442 57 277 0.0 0.0 0.00 0.00 0.00 88 1021.2
20260507125438 55 291 0.0 0.0 0.00 0.00 0.00 98 1021.1
20260507122435 52 296 0.0 0.0 0.00 0.00 0.00 99 1020.6
20260507115430 52 296 0.0 0.0 0.00 0.00 0.00 99 1020.4
20260507112429 52 297 0.0 0.0 0.00 0.00 0.00 98 1020.1
20260507105426 53 329 0.0 0.0 0.00 0.00 0.00 98 1019.7
20260507102422 52 41 0.0 0.0 0.00 0.00 0.00 97 1018.9
20260507095421 53 41 0.0 0.0 0.00 0.00 0.00 95 1018.8
20260507092421 54 41 0.0 0.0 0.00 0.00 0.00 91 1018.5
20260507085418 55 21 0.0 0.0 0.00 0.00 0.00 90 1018.4
20260507082415 55 25 0.0 0.0 0.00 0.00 0.00 91 1018.4
20260507075410 56 59 0.0 0.9 0.00 0.00 0.00 90 1018.0
20260507072410 56 42 0.0 0.0 0.00 0.00 0.00 91 1017.5
20260507065409 56 323 0.9 0.9 0.00 0.00 0.00 89 1017.7
20260507062405 57 61 0.9 1.7 0.00 0.00 0.00 88 1017.7
20260507055404 57 91 0.9 0.9 0.00 0.00 0.00 86 1017.8
20260507052400 59 27 0.9 0.9 0.00 0.00 0.00 86 1017.7
20260507045359 59 336 0.0 0.9 0.00 0.26 0.26 84 1017.7
20260507042355 59 39 0.0 0.9 0.00 0.26 0.26 84 1018.0
20260507035350 60 55 0.0 0.9 0.00 0.26 0.26 84 1017.9
20260507032350 60 319 0.9 0.9 0.00 0.26 0.26 85 1017.9
20260507025348 60 21 1.7 1.7 0.00 0.26 0.26 83 1017.3
20260507022347 60 354 0.9 0.9 0.00 0.26 0.26 85 1017.2
20260507015346 60 1 0.9 1.7 0.00 0.26 0.26 87 1016.4
20260507012343 60 128 1.7 2.6 0.00 0.26 0.26 88 1015.6
20260507005339 59 76 2.6 5.2 0.00 0.26 0.26 88 1015.3
20260507002334 60 61 0.9 0.9 0.00 0.26 0.26 88 1015.1
20260506235332 60 359 0.9 0.9 0.00 0.26 0.26 87 1014.5
20260506232330 60 64 0.0 0.9 0.00 0.26 0.26 87 1014.7
20260506225329 60 26 0.0 0.9 0.00 0.26 0.26 87 1014.2
20260506222325 60 334 0.0 0.9 0.00 0.26 0.26 90 1014.5
20260506215324 60 298 0.0 0.9 0.00 0.26 0.26 91 1013.8
20260506212323 62 330 0.0 0.9 0.00 0.24 0.24 82 1013.8
20260506205319 62 90 1.7 2.6 0.00 0.24 0.24 80 1013.9
20260506202314 62 70 0.9 0.9 0.00 0.24 0.24 80 1014.5
20260506195312 61 9 1.7 1.7 0.00 0.24 0.24 83 1015.1